Flag for France Weather past 2 weeks in Paris, France

Now
46 °F

Mostly cloudy.


Feels Like: 40 °F
Forecast: 47 / 53 °F
Wind: 14 mph from South

Location: Villacoublay

Current Time: Feb 28, 2015 at 1:53:19 PM

Latest Report: Feb 28, 2015 at 1:30 PM


Visibility: N/A

Pressure: 30.04 "Hg

Humidity: 62%

Dew point: 34 °F

Location of ParisLocation

Historic Weather in Paris — Graph

°F

Paris temperature yesterday

Maximum temperature yesterday: 46 °F (at 1:30 PM)
Minimum temperature yesterday: 34 °F (at 11:30 PM)
Average temperature yesterday: 41 °F

Past Weeks' High & Low Weather Summary

 TemperatureHumidityPressure
High54 °F (Feb 13, 2:30 PM)100% (Feb 14, 2:30 AM)30.74 "Hg (Feb 14, 2:30 AM)
Low30 °F (Feb 22, 6:00 AM)43% (Feb 27, 4:00 PM)29.42 "Hg (Feb 23, 5:30 AM)
Average41 °F85%29.98 "Hg
* Reported Feb 13 12:00 Noon — Feb 28 12:30 PM, Paris, Weather by CustomWeather, © 2015

Note: Actual official high and low records may vary slightly from our data, if they occured in-between our weather recording intervals... More about our weather records

Advertising

Paris weather history for previous 24 hours

 ConditionsComfort  
Time TempWeatherWind HumidityBarometerVisibility
12:30 PM
Sat, Feb 28
45 °FClear.15 mph61%30.07 "HgN/A
12:00 PM43 °FClear.12 mph66%30.07 "HgN/A
11:30 AM41 °FClear.13 mph76%30.07 "HgN/A
11:00 AM39 °FClear.10 mph75%30.07 "HgN/A
10:30 AM39 °FClear.12 mph70%30.09 "HgN/A
10:00 AM37 °FClear.10 mph75%30.09 "HgN/A
9:30 AM37 °FClear.8 mph75%30.09 "HgN/A
9:00 AM36 °FClear.6 mph81%30.12 "HgN/A
8:30 AM34 °FClear.6 mph87%30.12 "HgN/A
8:00 AM34 °FClear.3 mph81%30.12 "HgN/A
7:30 AM34 °FClear.5 mph81%30.09 "HgN/A
7:00 AM34 °FClear.5 mph81%30.12 "HgN/A
6:30 AM34 °FClear.5 mph75%30.12 "HgN/A
6:00 AM34 °FClear.5 mph75%30.12 "HgN/A
5:30 AM34 °FClear.5 mph75%30.12 "HgN/A
5:00 AM36 °FClear.5 mph70%30.12 "HgN/A
4:30 AM34 °FClear.6 mph81%30.12 "HgN/A
4:00 AM34 °FClear.5 mph75%30.15 "HgN/A
3:30 AM32 °FClear.3 mph80%30.15 "HgN/A
3:00 AM34 °FClear.5 mph75%30.15 "HgN/A
2:30 AM36 °FClear.5 mph70%30.18 "HgN/A
2:00 AM36 °FClear.3 mph70%30.18 "HgN/A
1:30 AM32 °FClear.2 mph80%30.18 "HgN/A
1:00 AM32 °FClear.No wind80%30.18 "HgN/A
12:30 AM32 °FClear.1 mph80%30.18 "HgN/A
12:00 AM34 °FClear.2 mph75%30.18 "HgN/A
11:30 PM
Fri, Feb 27
34 °FClear.No wind75%30.18 "HgN/A
11:00 PM36 °FClear.1 mph75%30.21 "HgN/A
10:30 PM36 °FClear.3 mph75%30.21 "HgN/A
10:00 PM37 °FClear.2 mph70%30.21 "HgN/A
9:30 PM39 °FClear.6 mph65%30.21 "HgN/A
9:00 PM39 °FPassing clouds.7 mph65%30.21 "HgN/A
8:30 PM39 °FPassing clouds.6 mph65%30.21 "HgN/A
8:00 PM39 °FClear.7 mph65%30.21 "HgN/A
7:30 PM41 °FPassing clouds.6 mph61%30.21 "HgN/A
7:00 PM43 °FPassing clouds.7 mph57%30.18 "HgN/A
6:30 PM43 °FPartly cloudy.5 mph53%30.18 "HgN/A
6:00 PM43 °FPassing clouds.6 mph53%30.18 "HgN/A
5:30 PM45 °FScattered clouds.7 mph53%30.15 "HgN/A
5:00 PM46 °FPartly sunny.12 mph50%30.15 "HgN/A
4:30 PM45 °FClear.12 mph46%30.15 "HgN/A
4:00 PM46 °FClear.13 mph43%30.15 "HgN/A
3:30 PM45 °FPassing clouds.13 mph49%30.15 "HgN/A
3:00 PM46 °FBroken clouds.13 mph50%30.15 "HgN/A
2:30 PM45 °FScattered clouds.10 mph53%30.15 "HgN/A
2:00 PM45 °FBroken clouds.10 mph49%30.12 "HgN/A
1:30 PM46 °FBroken clouds.13 mph50%30.15 "HgN/A
1:00 PM45 °FPartly sunny.13 mph53%30.15 "HgN/A
Weather by CustomWeather, © 2015

See weather overviewHow to use our weather pages